SL-16 DEB, 22617

Orbit data source: Space-Track

SL-16 DEB, 22617 is space debris in LEO originally from a launch on Fri, 26 Mar 1993 UTC launched from the Tyuratam Missile And Space Complex (TTMTR). Debris objects in space refer to the collection of defunct objects orbiting the Earth. Examples of debris include non-operational satellites, rocket bodies, and fragments generated from explosions, collisions, or faulty payload assembly.

Loading next visibility...
Identifier
22617, 1993-016AB
Orbit
LEO
Country
Flag of CISCIS
Related business
Manufacturer
Unknown
Mission
Spacecraft
Bus & Motor
Unknown
Mass
Unknown
Launch date (UTC)
1993-03-26 (33 years ago)
Launch vehicle
Unknown
Launch site
Tyuratam Missile And Space Complex (TTMTR)
Object type
Payload
Rocket body
Debris
Shape & HBR
Unknown shape, 0.1 m
Radar Cross Section
Medium (>0.1 m² and <1 m²)

Expand to show TLE details & history
Last TLE update: 14 hours ago

TLE from 14 hours ago
0 SL-16 DEB
1 22617U 93016AB  26263.02232894  .00000414  00000-0  33075-3 0  9996
2 22617  70.9962 270.9430 0133116   9.0343  21.1304 13.92548460693722
Epoch: 2026-09-20T00:32Z
TLE epoch observation values (Epoch: 2026-09-20T00:32:09.220Z)
Latitude
28.9416°
Longitude
-85.09802°
Altitude
832.309 km
Speed
7.486 km/s
True Right ascension
18h 47m 27s
True Declination
28° 47' 52"
Sunlit
Object was in daylight at epoch
Visualization orbit readout
Latitude
Unknown
Longitude
Unknown
Altitude
Unknown
Speed
Unknown
Apparent Right ascension
Unknown
Apparent Declination
Unknown
Sunlit
N/A
Visualization observer readout
Local Sidereal Time
07:23:58
Azimuth
Unknown
Elevation
Unknown
Doppler factor
Unknown
Orbital elements
Apogee altitude
1,014.779 km
Perigee altitude
820.542 km
Semi-major axis
7,295.797 km
Eccentricity
0.01331
Inclination
70.9962°
RAAN
270.943°
Arg. of periapsis
9.0343°
True anomaly
21.68895°
Mean anomaly
21.1304°
Eccentric anomaly
21.4088°
Mean motion
3.48284 °/min
Orbital period
103.36 mins
BSTAR
0.00033075
Loading maneuver chart data...
Computing Atmospheric mass density...
Loading historical data...
Loading historical data...
Loading historical data...
Loading historical data...
Loading historical data...
Loading historical data...
Loading historical data...

Documentation

Showing up to 5 results
|